Flag for Turkey Weather past 2 weeks in Gaziantep, Turkey

Now
50 °F

Sprinkles. Passing clouds.


Feels Like: 47 °F
Forecast: 39 / 55 °F
Wind: 7 mph from Northwest

Location: Gaziantep Airport

Current Time: Mar 2, 2015 at 7:33:42 PM

Latest Report: Mar 2, 2015 at 6:50 PM


Visibility: N/A

Pressure: 29.98 "Hg

Humidity: 76%

Dew point: 43 °F

Location of GaziantepLocation

Historic Weather in Gaziantep — Graph

°F

Gaziantep temperature yesterday

Maximum temperature yesterday: 57 °F (at 1:20 PM)
Minimum temperature yesterday: 41 °F (at 4:20 AM)
Average temperature yesterday: 49 °F

Past Weeks' High & Low Weather Summary

 TemperatureHumidityPressure
High59 °F (Feb 28, 12:20 PM)100% (Feb 17, 2:20 AM)30.30 "Hg (Feb 17, 2:20 AM)
Low21 °F (Feb 22, 5:50 AM)39% (Feb 21, 10:50 AM)29.53 "Hg (Feb 20, 4:20 AM)
Average42 °F80%30.00 "Hg
* Reported Feb 15 6:20 PM — Mar 2 6:20 PM, Gaziantep, Weather by CustomWeather, © 2015

Note: Actual official high and low records may vary slightly from our data, if they occured in-between our weather recording intervals... More about our weather records

Advertising

Gaziantep weather history for previous 24 hours

 ConditionsComfort  
Time TempWeatherWind HumidityBarometerVisibility
6:20 PM
Mon, Mar 2
50 °FSprinkles. Passing clouds.10 mph82%29.98 "HgN/A
5:50 PM50 °FPassing clouds.12 mph82%29.98 "HgN/A
5:20 PM52 °FPartly sunny.9 mph82%29.95 "HgN/A
4:50 PM54 °FBroken clouds.10 mph77%29.95 "HgN/A
4:20 PM54 °FPartly sunny.10 mph72%29.95 "HgN/A
3:50 PM55 °FPartly sunny.14 mph63%29.95 "HgN/A
3:20 PM57 °FBroken clouds.13 mph63%29.92 "HgN/A
2:50 PM57 °FBroken clouds.15 mph59%29.95 "HgN/A
2:20 PM57 °FBroken clouds.14 mph59%29.95 "HgN/A
1:50 PM57 °FBroken clouds.12 mph63%29.95 "HgN/A
1:20 PM57 °FBroken clouds.13 mph63%29.95 "HgN/A
12:50 PM55 °FBroken clouds.13 mph67%29.95 "HgN/A
12:20 PM55 °FBroken clouds.14 mph67%29.95 "HgN/A
11:50 AM54 °FBroken clouds.10 mph72%29.95 "HgN/A
11:20 AM54 °FBroken clouds.10 mph72%29.98 "HgN/A
10:50 AM50 °FBroken clouds.12 mph82%29.98 "HgN/A
10:20 AM50 °FBroken clouds.16 mph82%29.98 "HgN/A
9:50 AM48 °FBroken clouds.12 mph82%29.98 "HgN/A
9:20 AM48 °FBroken clouds.13 mph82%29.98 "HgN/A
8:50 AM48 °FBroken clouds.9 mph82%29.98 "HgN/A
8:20 AM48 °FBroken clouds.7 mph76%29.98 "HgN/A
7:50 AM45 °FBroken clouds.5 mph87%29.98 "HgN/A
7:20 AM45 °FBroken clouds.5 mph87%29.95 "HgN/A
6:50 AM43 °FBroken clouds.3 mph87%29.95 "HgN/A
6:20 AM43 °FBroken clouds.2 mph87%29.95 "HgN/A
5:50 AM43 °FLight rain. Partly cloudy.6 mph87%29.95 "HgN/A
5:20 AM45 °FLight rain. Partly cloudy.17 mph81%29.95 "HgN/A
4:50 AM45 °FLight rain. Partly cloudy.13 mph81%29.95 "HgN/A
3:50 AM45 °FPartly cloudy.6 mph93%29.92 "HgN/A
3:20 AM43 °FPartly cloudy.2 mph93%29.95 "HgN/A
2:50 AM43 °FPartly cloudy.3 mph93%29.95 "HgN/A
2:20 AM43 °FPartly cloudy.No wind93%29.95 "HgN/A
1:50 AM45 °FPartly cloudy.7 mph87%29.95 "HgN/A
1:20 AM45 °FPassing clouds.2 mph87%29.95 "HgN/A
12:50 AM45 °FPassing clouds.5 mph87%29.95 "HgN/A
12:20 AM45 °FPassing clouds.5 mph87%29.95 "HgN/A
11:50 PM
Sun, Mar 1
46 °FPassing clouds.6 mph87%29.95 "HgN/A
11:20 PM46 °FPassing clouds.8 mph87%29.98 "HgN/A
10:50 PM46 °FPassing clouds.6 mph87%29.95 "HgN/A
10:20 PM46 °FPassing clouds.1 mph87%29.98 "HgN/A
9:20 PM48 °FPassing clouds.5 mph82%29.95 "HgN/A
8:50 PM48 °FPartly cloudy.8 mph82%29.98 "HgN/A
8:20 PM48 °FPartly cloudy.6 mph82%29.98 "HgN/A
7:50 PM48 °FPartly cloudy.7 mph82%29.98 "HgN/A
7:20 PM48 °FPartly cloudy.5 mph82%29.98 "HgN/A
Weather by CustomWeather, © 2015

See weather overviewHow to use our weather pages